Home   Weather   Bat Yam   Past weeks

Flag for Israel Past Weather in Bat Yam, Israel — Yesterday and Last 2 Weeks

Now
68 °F

Passing clouds.


Feels Like: 68 °F
Forecast: 59 / 64 °F
Wind: 3 mph from North

Location: Dov Airport

Current Time: Dec 8, 2016 at 12:04:32 pm

Latest Report: Dec 8, 2016 at 10:50 am


Visibility: N/A

Pressure: 30.24 "Hg

Humidity: 46%

Dew Point: 46 °F

Location of Bat YamLocation

Past Weather in Bat Yam — Graph

°F

Bat Yam Temperature Yesterday

Maximum temperature yesterday: 68 °F (at 9:50 am)
Minimum temperature yesterday: 57 °F (at 5:50 am)
Average temperature yesterday: 64 °F

High & Low Weather Summary for the Past Weeks

 TemperatureHumidityPressure
High81 °F (Nov 28, 1:50 pm)94% (Dec 1, 3:02 pm)30.30 "Hg (Dec 1, 3:02 pm)
Low52 °F (Nov 26, 6:50 am)5% (Nov 24, 1:50 pm)29.74 "Hg (Dec 1, 1:50 pm)
Average65 °F44%30.07 "Hg
* Reported Nov 23 10:50 am — Dec 8 10:50 am, Bat Yam, Weather by CustomWeather, © 2016

Note: Actual official high and low records may vary slightly from our data, if they occured in-between our weather recording intervals... More about our weather records

Advertising

Bat Yam Weather History for the Previous 24 Hours

Scroll right to see more
 ConditionsComfort  
Time TempWeatherWind HumidityBarometerVisibility
10:50 am
Thu, Dec 8
68 °FPassing clouds.3 mph46%30.24 "HgN/A
9:50 am66 °FPassing clouds.3 mph46%30.24 "HgN/A
8:50 am63 °FPassing clouds.6 mph52%30.24 "HgN/A
7:50 am57 °FPassing clouds.6 mph63%30.27 "HgN/A
6:50 am54 °FPassing clouds.6 mph72%30.27 "HgN/A
5:50 am55 °FClear.8 mph63%30.24 "Hg10 mi
10:50 pm
Wed, Dec 7
61 °FClear.5 mph55%30.24 "Hg10 mi
9:50 pm61 °FClear.5 mph59%30.24 "Hg10 mi
8:50 pm61 °FClear.5 mph55%30.24 "Hg10 mi
7:50 pm63 °FPassing clouds.7 mph52%30.21 "HgN/A
6:50 pm64 °FClear.7 mph49%30.21 "Hg10 mi
5:50 pm64 °FClear.8 mph56%30.21 "Hg10 mi
4:50 pm66 °FClear.13 mph52%30.18 "Hg10 mi
3:50 pm68 °FSunny.16 mph53%30.18 "Hg10 mi
2:50 pm68 °FSunny.13 mph49%30.18 "Hg10 mi
1:50 pm68 °FSunny.8 mph49%30.18 "Hg10 mi
12:50 pm68 °FSunny.6 mph49%30.18 "Hg10 mi
Weather by CustomWeather, © 2016

See weather overviewHow to use our weather pages